User: anonymous   Login
Location: ROBOsky.com Wild Flower Ridge Observatory
(43.9736°N, 79.9739°W)
Time: 23:41:36
(UTC-05:00)
Language:

Cosmos 1190 Rocket - Orbit

View from above orbital plane
View from above orbital plane
View from above satellite
View from above satellite

Ground track
Ground track

The orbit data is extracted from the following two-line orbital elements,

1 11870U 80056B   17018.52885632  .00000048  00000-0  25187-4 0  9991
2 11870  74.0532 122.5184 0015233 114.1535 246.1213 14.36835857913313
Epoch (UTC): 18 January 2017 12:41:33
Eccentricity: 0.0015233
inclination: 74.0532°
perigee height: 758 km
apogee height: 780 km
right ascension of ascending node: 122.5184°
argument of perigee: 114.1535°
revolutions per day: 14.36835857
mean anomaly at epoch: 246.1213°
orbit number at epoch: 91331

The dashed part of the orbit path shows where the satellite is in the earth's shadow,  

DLR